Tracking 20369 objects as of 18-Feb-2020
HD Live streaming from Space Station
objects crossing your sky now

COSMOS 1300

Track COSMOS 1300 now!
10-day predictions
COSMOS 1300 is classified as:


NORAD ID: 12785
Int'l Code: 1981-082A
Perigee: 518.3 km
Apogee: 522.1 km
Inclination: 82.5 °
Period: 94.9 minutes
Semi major axis: 6891 km
RCS: 5.912 m2 (large)
Launch date: August 24, 1981
Source: Commonwealth of Independent States (former USSR) (CIS)
Launch site: PLESETSK MISSILE AND SPACE COMPLEX (PKMTR)
aabbcc
Your satellite tracking list
Your tracking list is empty




NASA's NSSDC Master Catalog

Two Line Element Set (TLE):
1 12785U 81082A   20048.91157764 +.00000225 +00000-0 +95613-5 0  9994
2 12785 082.5048 187.9368 0002719 095.6574 054.7033 15.17614650099566
Source of the keplerian elements: AFSPC